WB4FAY-4 Weather Reports


Display with metric or nautical units.
time (UTC)temp
F
wind
direction
speed
MPH
gust
MPH
rain 1hr
in
rain 24hr
in
rain mn
in
humidity
%
barometer
mb
20260507223517 74 24 0.0 4.0 0.00 0.00 0.02 63 1014.4
20260507223018 73 78 1.0 2.0 0.00 0.00 0.02 63 1014.5
20260507222517 73 86 0.0 3.0 0.00 0.00 0.02 64 1014.4
20260507222017 73 330 0.0 4.0 0.00 0.00 0.02 63 1014.3
20260507221517 72 264 2.0 6.0 0.00 0.00 0.02 64 1014.4
20260507221017 72 193 2.0 6.0 0.00 0.00 0.02 63 1014.5
20260507220517 72 37 2.0 7.0 0.00 0.00 0.02 64 1014.4
20260507220017 72 17 4.0 7.0 0.00 0.00 0.02 62 1014.4
20260507215517 73 52 3.0 6.0 0.00 0.00 0.02 62 1014.3
20260507215017 73 318 1.0 4.0 0.00 0.00 0.02 63 1014.4
20260507214516 74 302 1.0 4.0 0.00 0.00 0.02 63 1014.3
20260507214017 74 59 2.0 3.0 0.00 0.00 0.02 63 1014.2
20260507213517 73 16 0.0 3.0 0.00 0.00 0.02 65 1014.3
20260507213017 73 347 1.0 3.0 0.00 0.00 0.02 65 1014.3
20260507212517 73 325 1.0 7.0 0.00 0.00 0.02 64 1014.1
20260507212017 73 1 2.0 10.0 0.00 0.00 0.02 63 1014.2
20260507211517 72 339 2.0 5.0 0.00 0.00 0.02 63 1014.2
20260507211017 73 8 0.0 7.0 0.00 0.00 0.02 65 1014.0
20260507210517 73 107 3.0 3.0 0.00 0.00 0.02 66 1014.0
20260507210017 73 30 0.0 7.0 0.00 0.00 0.02 66 1014.1
20260507205517 72 312 4.0 8.0 0.00 0.00 0.02 67 1014.1
20260507205017 72 268 2.0 10.0 0.00 0.00 0.02 63 1014.2
20260507204517 72 326 0.0 6.0 0.00 0.00 0.02 64 1014.3
20260507204017 73 285 0.0 4.0 0.00 0.00 0.02 65 1014.5
20260507203517 73 318 3.0 5.0 0.00 0.00 0.02 65 1014.4
20260507203017 73 288 3.0 5.0 0.00 0.00 0.02 65 1014.4
20260507202517 73 241 2.0 5.0 0.00 0.00 0.02 66 1014.4
20260507202017 72 230 2.0 5.0 0.00 0.00 0.02 68 1014.2
20260507201517 72 227 1.0 5.0 0.00 0.00 0.02 70 1014.4
20260507201017 72 64 3.0 6.0 0.00 0.00 0.02 69 1014.4
20260507200517 71 16 2.0 5.0 0.00 0.00 0.02 70 1014.6
20260507200017 71 264 2.0 5.0 0.00 0.00 0.02 72 1014.6
20260507195517 71 265 3.0 4.0 0.00 0.00 0.02 72 1014.4
20260507195017 70 210 1.0 5.0 0.00 0.00 0.02 70 1014.5
20260507194517 70 339 3.0 6.0 0.00 0.00 0.02 74 1014.7
20260507194017 70 336 3.0 4.0 0.00 0.00 0.02 71 1014.7
20260507193517 69 148 1.0 4.0 0.00 0.00 0.02 74 1014.7
20260507193018 69 360 1.0 7.0 0.00 0.00 0.02 75 1014.6
20260507192517 69 337 3.0 6.0 0.00 0.00 0.02 75 1014.6
20260507192018 68 27 5.0 4.0 0.00 0.00 0.02 76 1014.8
20260507191517 68 93 0.0 3.0 0.00 0.00 0.02 78 1014.9
20260507191017 68 97 3.0 4.0 0.00 0.00 0.02 76 1014.8
20260507190517 68 104 0.0 6.0 0.00 0.00 0.02 75 1014.7
20260507190018 68 325 3.0 7.0 0.00 0.00 0.02 76 1014.8
20260507185517 68 353 6.0 6.0 0.00 0.00 0.02 77 1014.8
20260507185017 67 13 4.0 7.0 0.00 0.00 0.02 78 1014.7
20260507184517 66 333 2.0 9.0 0.00 0.00 0.02 78 1015.0
20260507184017 66 340 4.0 8.0 0.00 0.00 0.02 79 1014.9
20260507183517 66 271 1.0 5.0 0.00 0.00 0.02 80 1015.2
20260507183017 66 3 1.0 8.0 0.00 0.00 0.02 80 1015.2
20260507182517 66 320 3.0 8.0 0.00 0.00 0.02 81 1015.3
20260507182017 65 308 3.0 9.0 0.00 0.00 0.02 82 1015.5
20260507181517 65 360 0.0 6.0 0.00 0.00 0.02 83 1015.5
20260507181017 65 359 4.0 10.0 0.00 0.00 0.02 84 1015.5
20260507180517 65 278 2.0 8.0 0.00 0.00 0.02 85 1015.6
20260507180017 65 4 2.0 5.0 0.00 0.00 0.02 86 1015.4
20260507175517 64 4 2.0 7.0 0.00 0.00 0.02 86 1015.5
20260507175017 64 350 6.0 8.0 0.00 0.00 0.02 86 1015.7
20260507174516 64 34 7.0 3.0 0.00 0.00 0.02 89 1015.7
20260507174017 64 289 2.0 2.0 0.00 0.00 0.02 89 1015.7
20260507173517 63 322 2.0 4.0 0.00 0.00 0.02 90 1015.8
20260507173017 63 247 0.0 5.0 0.00 0.00 0.02 91 1015.9
20260507172517 63 337 2.0 6.0 0.00 0.00 0.02 92 1015.9
20260507172017 63 342 1.0 10.0 0.00 0.00 0.02 93 1015.9
20260507171517 62 312 0.0 5.0 0.00 0.00 0.02 94 1016.0
20260507171017 62 239 1.0 5.0 0.00 0.00 0.02 95 1015.9
20260507170517 62 47 0.0 3.0 0.00 0.00 0.02 95 1016.0
20260507170017 61 7 0.0 6.0 0.00 0.00 0.02 95 1016.1
20260507165517 62 342 5.0 5.0 0.00 0.00 0.02 95 1016.2
20260507165017 61 312 1.0 5.0 0.00 0.00 0.02 95 1016.3
20260507164517 61 343 1.0 4.0 0.00 0.00 0.02 95 1016.1
20260507164017 61 349 4.0 6.0 0.00 0.00 0.02 95 1016.0
20260507163517 61 312 1.0 4.0 0.00 0.00 0.02 96 1015.9
20260507163017 61 335 2.0 5.0 0.00 0.00 0.02 96 1015.8
20260507162517 61 318 2.0 6.0 0.00 0.00 0.02 96 1015.8
20260507162017 61 281 4.0 4.0 0.00 0.00 0.02 96 1015.7
20260507161517 61 360 1.0 7.0 0.00 0.00 0.02 96 1015.7
20260507161017 61 45 6.0 5.0 0.00 0.00 0.02 96 1015.7
20260507160517 61 339 5.0 4.0 0.00 0.00 0.02 96 1015.7
20260507160017 61 0 0.0 0.0 0.00 0.00 0.02 96 1015.5
20260507155517 61 346 0.0 6.0 0.00 0.00 0.02 96 1015.3
20260507155017 61 306 0.0 3.0 0.00 0.00 0.02 97 1015.6
20260507154517 61 296 0.0 6.0 0.00 0.00 0.02 97 1015.4
20260507154017 61 339 1.0 6.0 0.00 0.00 0.02 97 1015.4
20260507153517 62 1 3.0 6.0 0.00 0.00 0.02 97 1015.3
20260507153017 62 298 0.0 8.0 0.00 0.00 0.02 97 1015.3
20260507152517 62 186 1.0 4.0 0.00 0.00 0.02 97 1015.3
20260507152017 62 347 0.0 8.0 0.00 0.00 0.02 97 1015.1
20260507151517 62 62 4.0 7.0 0.00 0.00 0.02 97 1015.1
20260507151017 62 356 3.0 9.0 0.00 0.00 0.02 97 1015.2
20260507150517 62 56 2.0 5.0 0.00 0.00 0.02 97 1015.2
20260507150017 62 330 1.0 4.0 0.00 0.00 0.02 97 1015.1
20260507145517 62 1 0.0 5.0 0.00 0.00 0.02 97 1014.9
20260507145017 62 113 3.0 2.0 0.00 0.00 0.02 97 1014.9
20260507144518 62 275 1.0 5.0 0.00 0.00 0.02 97 1014.8
20260507144017 61 346 3.0 5.0 0.00 0.00 0.02 97 1014.9
20260507143517 62 352 3.0 5.0 0.00 0.00 0.02 97 1014.9
20260507143017 62 315 0.0 3.0 0.00 0.00 0.02 98 1014.9
20260507142517 62 344 0.0 4.0 0.00 0.00 0.02 98 1015.0
20260507142017 61 360 0.0 4.0 0.00 0.00 0.02 98 1014.9
20260507141517 62 232 0.0 1.0 0.00 0.00 0.02 98 1014.8
20260507141017 62 347 1.0 5.0 0.00 0.00 0.02 98 1014.8
20260507140517 61 270 0.0 4.0 0.00 0.00 0.02 98 1014.7
20260507140018 61 25 0.0 7.0 0.00 0.00 0.02 98 1014.7
20260507135517 61 34 2.0 7.0 0.00 0.00 0.02 98 1014.5
20260507135017 61 353 0.0 7.0 0.00 0.00 0.02 98 1014.5
20260507134517 61 1 0.0 3.0 0.00 0.00 0.02 98 1014.5
20260507134017 61 0 1.0 0.0 0.00 0.00 0.02 98 1014.6
20260507133517 61 0 0.0 0.0 0.00 0.00 0.02 98 1014.6
20260507133017 61 0 0.0 0.0 0.00 0.00 0.02 98 1014.5
20260507132517 61 0 0.0 0.0 0.00 0.00 0.02 98 1014.4
20260507132017 61 23 0.0 7.0 0.00 0.00 0.02 98 1014.2
20260507131517 61 17 4.0 4.0 0.00 0.00 0.02 98 1014.1
20260507131017 61 34 0.0 5.0 0.00 0.00 0.02 98 1014.2
20260507130517 61 114 0.0 5.0 0.00 0.00 0.02 98 1014.2
20260507130017 61 90 3.0 6.0 0.00 0.00 0.02 98 1013.9
20260507125517 61 85 0.0 7.0 0.00 0.00 0.02 98 1013.8
20260507125017 61 0 0.0 0.0 0.00 0.00 0.02 98 1013.9
20260507124517 61 0 0.0 0.0 0.00 0.00 0.02 98 1013.9
20260507124017 61 102 0.0 1.0 0.00 0.00 0.02 98 1013.8
20260507123517 61 360 0.0 4.0 0.00 0.00 0.02 98 1013.8
20260507123018 61 27 0.0 9.0 0.00 0.00 0.02 98 1013.9
20260507122517 61 360 0.0 7.0 0.00 0.00 0.02 98 1013.6
20260507122017 61 359 0.0 7.0 0.00 0.00 0.02 98 1013.5
20260507121517 61 280 0.0 3.0 0.00 0.00 0.02 98 1013.4
20260507121017 61 344 0.0 5.0 0.00 0.00 0.02 98 1013.2
20260507120517 61 326 0.0 0.0 0.00 0.00 0.02 98 1012.9
20260507120017 61 0 0.0 0.0 0.00 0.00 0.02 98 1012.9
20260507115518 61 336 0.0 3.0 0.00 0.00 0.02 98 1012.8
20260507115017 60 353 0.0 4.0 0.00 0.00 0.01 98 1012.9
20260507114517 61 102 0.0 1.0 0.00 0.00 0.01 98 1012.9
20260507114017 61 113 0.0 2.0 0.00 0.00 0.01 98 1012.9
20260507113517 61 349 0.0 8.0 0.00 0.00 0.01 98 1012.8
20260507113017 60 360 1.0 8.0 0.00 0.00 0.01 98 1012.7
20260507112517 61 23 5.0 5.0 0.00 0.00 0.01 98 1012.7
20260507112017 61 342 0.0 4.0 0.00 0.00 0.01 98 1012.7
20260507111518 60 18 3.0 7.0 0.00 0.00 0.01 98 1012.6
20260507111017 60 31 0.0 10.0 0.00 0.00 0.01 98 1012.6
20260507110517 60 342 3.0 10.0 0.00 0.00 0.01 97 1012.6
20260507110017 61 309 0.0 9.0 0.00 0.00 0.01 97 1012.6
20260507105517 61 337 7.0 15.0 0.00 0.00 0.01 97 1012.8
20260507105018 61 291 9.0 10.0 0.00 0.00 0.01 97 1012.9
20260507104518 61 38 3.0 11.0 0.00 0.00 0.01 97 1012.3
20260507104017 62 346 0.0 8.0 0.00 0.00 0.01 97 1012.1
20260507103517 62 37 3.0 6.0 0.00 0.00 0.01 97 1011.8
20260507103017 62 350 0.0 4.0 0.00 0.00 0.01 97 1011.8
20260507102517 62 16 1.0 8.0 0.00 0.00 0.01 97 1011.7
20260507102017 63 11 7.0 10.0 0.00 0.00 0.01 97 1011.6
20260507101518 63 329 3.0 11.0 0.00 0.00 0.01 97 1011.7
20260507101017 64 353 3.0 9.0 0.00 0.00 0.01 97 1011.6
20260507100517 64 323 3.0 11.0 0.00 0.00 0.01 97 1011.2
20260507100018 65 291 3.0 8.0 0.00 0.00 0.01 97 1011.2
20260507095517 65 329 4.0 5.0 0.00 0.00 0.01 98 1011.1
20260507095017 65 0 0.0 0.0 0.00 0.00 0.01 98 1011.0
20260507094518 65 323 0.0 5.0 0.00 0.00 0.01 98 1011.0
20260507094017 65 16 0.0 5.0 0.00 0.00 0.01 98 1011.1
20260507093518 65 18 1.0 1.0 0.00 0.00 0.01 98 1011.3
20260507093017 65 330 0.0 9.0 0.00 0.00 0.01 98 1011.3
20260507092517 66 11 0.0 1.0 0.00 0.00 0.01 98 1011.2
20260507092017 66 0 0.0 0.0 0.00 0.00 0.01 98 1011.2
20260507091517 66 18 0.0 1.0 0.00 0.00 0.01 98 1011.2
20260507091017 66 86 0.0 3.0 0.00 0.00 0.01 98 1011.2
20260507090517 66 347 0.0 2.0 0.00 0.00 0.01 97 1011.2
20260507090017 66 0 0.0 0.0 0.00 0.00 0.01 97 1011.1
20260507085518 65 0 0.0 0.0 0.00 0.00 0.01 97 1011.2
20260507085017 66 30 0.0 2.0 0.00 0.00 0.01 97 1011.0
20260507084517 66 82 0.0 2.0 0.00 0.00 0.01 97 1011.0
20260507084017 66 96 2.0 6.0 0.00 0.00 0.00 97 1011.2
20260507083517 66 85 0.0 5.0 0.00 0.00 0.00 97 1010.8
20260507083018 66 0 0.0 0.0 0.00 0.00 0.00 97 1010.8
20260507082517 66 0 0.0 0.0 0.00 0.00 0.00 97 1010.6
20260507082017 66 90 0.0 7.0 0.00 0.00 0.00 97 1010.7
20260507081517 66 322 0.0 2.0 0.00 0.00 0.00 97 1010.6
20260507081017 66 20 0.0 8.0 0.00 0.00 0.00 97 1010.9
20260507080517 66 4 0.0 4.0 0.00 0.00 0.00 97 1010.9
20260507080017 66 34 0.0 5.0 0.00 0.00 0.00 97 1010.9
20260507075517 66 107 1.0 2.0 0.00 0.00 0.00 97 1010.9
20260507075017 66 102 0.0 3.0 0.00 0.00 0.00 97 1010.9
20260507074517 67 88 1.0 6.0 0.00 0.00 0.00 97 1011.0
20260507074018 66 100 4.0 3.0 0.00 0.00 0.00 97 1010.9
20260507073517 67 102 1.0 8.0 0.00 0.00 0.00 97 1011.2
20260507073017 67 85 1.0 4.0 0.00 0.00 0.00 97 1011.0
20260507072517 67 76 0.0 4.0 0.00 0.00 0.00 97 1011.1
20260507072017 67 73 1.0 4.0 0.00 0.00 0.00 97 1010.9
20260507071517 67 112 1.0 5.0 0.00 0.00 0.00 97 1010.5
20260507071017 67 25 0.0 2.0 0.00 0.00 0.00 97 1010.6
20260507070517 67 117 1.0 6.0 0.00 0.00 0.00 97 1010.4
20260507070017 67 95 1.0 4.0 0.00 0.00 0.00 97 1010.4
20260507065517 67 349 0.0 5.0 0.00 0.00 0.00 97 1011.0
20260507065016 67 346 5.0 5.0 0.00 0.00 0.00 97 1010.7
20260507064517 67 89 2.0 4.0 0.00 0.00 0.00 97 1011.5
20260507064017 67 127 3.0 3.0 0.00 0.00 0.00 97 1011.7
20260507063518 67 79 0.0 4.0 0.00 0.00 0.00 97 1011.6
20260507063017 67 106 4.0 3.0 0.00 0.00 0.00 97 1011.6
20260507062517 67 82 1.0 4.0 0.00 0.00 0.00 97 1011.6
20260507062017 67 28 1.0 1.0 0.00 0.00 0.00 97 1011.8
20260507061517 67 64 0.0 5.0 0.00 0.00 0.00 97 1012.0
20260507061017 67 114 0.0 3.0 0.00 0.00 0.00 97 1012.0
20260507060517 67 89 1.0 6.0 0.00 0.00 0.00 97 1011.8
20260507060017 67 92 0.0 4.0 0.00 0.00 0.00 97 1012.1
20260507055517 67 93 1.0 4.0 0.00 0.00 0.00 97 1011.8
20260507055018 67 102 1.0 4.0 0.00 0.00 0.00 97 1012.1
20260507054517 67 95 0.0 4.0 0.00 0.00 0.00 97 1012.5
20260507054017 67 80 0.0 1.0 0.00 0.00 0.00 97 1012.8
20260507053518 67 112 0.0 1.0 0.00 0.00 0.00 97 1012.7
20260507053017 67 92 0.0 2.0 0.00 0.00 0.00 97 1012.7
20260507052517 67 99 1.0 1.0 0.00 0.00 0.00 97 1012.7
20260507052017 67 356 0.0 1.0 0.00 0.00 0.00 97 1012.7
20260507051518 67 131 0.0 3.0 0.00 0.00 0.00 97 1012.6
20260507051017 67 80 2.0 7.0 0.00 0.00 0.00 97 1012.4
20260507050517 67 79 4.0 3.0 0.00 0.00 0.00 97 1012.6
20260507050017 67 23 1.0 4.0 0.00 0.00 0.00 97 1012.3
20260507045517 67 356 0.0 4.0 0.00 0.00 0.00 97 1012.2
20260507045017 67 14 2.0 4.0 0.00 0.00 0.00 97 1012.3
20260507044517 68 18 0.0 4.0 0.00 0.00 0.00 97 1012.3
20260507044017 68 349 0.0 4.0 0.00 0.00 0.00 97 1012.4
20260507043517 68 28 0.0 2.0 0.00 0.00 0.00 97 1012.8
20260507043018 68 78 0.0 4.0 0.00 0.00 0.00 97 1012.6
20260507042517 68 96 0.0 3.0 0.00 0.00 0.00 97 1012.8
20260507042018 68 110 0.0 4.0 0.00 0.00 0.00 97 1013.1
20260507041517 68 79 0.0 4.0 0.00 0.00 0.00 97 1013.1
20260507041017 68 49 0.0 3.0 0.00 0.00 0.00 97 1012.9
20260507040517 68 82 2.0 5.0 0.00 0.00 0.00 97 1012.7
20260507040017 68 107 4.0 5.0 0.00 0.00 0.00 97 1012.6
20260507035517 68 78 4.0 7.0 0.00 0.00 0.00 97 1011.8
20260507035017 68 0 3.0 0.0 0.00 0.00 0.00 97 1012.7
20260507034517 68 0 0.0 0.0 0.00 0.00 0.00 97 1012.9
20260507034017 68 346 0.0 4.0 0.00 0.00 0.00 97 1013.0
20260507033517 68 96 0.0 3.0 0.00 0.00 0.00 96 1012.3
20260507033018 68 96 1.0 5.0 0.00 0.00 0.00 96 1012.2
20260507032517 68 72 2.0 5.0 0.00 0.00 0.00 96 1011.5
20260507032017 68 90 1.0 4.0 0.00 0.00 0.00 96 1012.4
20260507031517 68 97 4.0 5.0 0.00 0.00 0.00 96 1013.2
20260507031018 68 0 0.0 0.0 0.00 0.00 0.00 96 1013.9
20260507030517 68 0 0.0 0.0 0.00 0.00 0.00 96 1014.1
20260507030017 68 330 0.0 2.0 0.00 0.00 0.00 96 1013.8
20260507025517 68 157 1.0 3.0 0.00 0.00 0.00 96 1013.1
20260507025017 68 0 0.0 0.0 0.00 0.00 0.00 96 1013.6
20260507024518 68 89 0.0 4.0 0.00 0.00 0.00 96 1013.3
20260507024017 68 75 3.0 4.0 0.00 0.00 0.00 96 1013.1
20260507023516 68 86 1.0 7.0 0.00 0.00 0.00 96 1012.7
20260507023017 68 16 4.0 7.0 0.00 0.00 0.00 96 1012.6
20260507022517 68 68 2.0 8.0 0.00 0.00 0.00 96 1012.7
20260507022017 68 123 0.0 7.0 0.00 0.00 0.00 96 1012.7
20260507021523 69 85 3.0 7.0 0.00 0.00 0.00 96 1012.8
20260507021017 69 25 2.0 12.0 0.00 0.00 0.00 96 1012.8
20260507020517 69 85 3.0 9.0 0.00 0.00 0.00 96 1012.5
20260507020017 70 25 3.0 15.0 0.00 0.00 0.00 96 1012.5
20260507015517 70 349 3.0 7.0 0.00 0.00 0.00 96 1013.0
20260507015017 71 328 3.0 9.0 0.00 0.00 0.00 96 1012.7
20260507014518 72 27 6.0 6.0 0.00 0.00 0.00 96 1012.7
20260507014017 72 20 4.0 11.0 0.00 0.00 0.00 96 1012.5
20260507013517 73 3 4.0 3.0 0.00 0.00 0.00 97 1012.1
20260507013017 73 0 0.0 0.0 0.00 0.00 0.00 97 1011.8
20260507012518 73 0 0.0 0.0 0.00 0.00 0.00 97 1012.1
20260507012017 73 0 0.0 0.0 0.00 0.00 0.00 97 1011.8
20260507011518 73 0 0.0 0.0 0.00 0.00 0.00 97 1012.1
20260507011017 73 0 0.0 0.0 0.00 0.00 0.00 97 1011.5
20260507010517 73 23 0.0 0.0 0.00 0.00 0.00 97 1011.1
20260507010017 73 0 0.0 0.0 0.00 0.00 0.00 97 1011.5
20260507005517 73 233 0.0 0.0 0.00 0.00 0.00 96 1011.4
20260507005017 73 274 0.0 2.0 0.00 0.00 0.00 96 1011.8
20260507004517 73 0 1.0 0.0 0.00 0.00 0.00 96 1012.0
20260507004018 73 216 0.0 1.0 0.00 0.00 0.00 96 1012.1
20260507003517 73 232 0.0 1.0 0.00 0.00 0.00 96 1012.0
20260507003017 73 0 0.0 0.0 0.00 0.00 0.00 96 1011.7
20260507002517 73 215 0.0 1.0 0.00 0.00 0.00 96 1011.5
20260507002017 73 0 0.0 0.0 0.00 0.00 0.00 96 1011.5
20260507001517 73 196 0.0 5.0 0.00 0.00 0.00 96 1011.7
20260507001018 73 260 0.0 2.0 0.00 0.00 0.00 96 1011.8
20260507000517 74 359 0.0 0.0 0.00 0.00 0.00 96 1012.0
20260507000017 74 0 0.0 0.0 0.00 0.00 0.00 96 1011.6
20260506235518 73 284 0.0 2.0 0.00 0.00 0.00 96 1011.8
20260506235017 74 260 1.0 3.0 0.00 0.00 0.00 96 1011.7
20260506234518 73 0 0.0 0.0 0.00 0.00 0.00 96 1011.4
20260506234018 73 240 0.0 2.0 0.00 0.00 0.00 96 1011.7
20260506233517 74 275 1.0 2.0 0.00 0.00 0.00 96 1012.1
20260506233018 73 198 0.0 3.0 0.00 0.00 0.00 96 1012.0
20260506232517 73 236 1.0 3.0 0.00 0.00 0.00 96 1012.1
20260506232017 74 203 0.0 4.0 0.00 0.00 0.00 96 1012.4
20260506231517 73 198 2.0 6.0 0.00 0.00 0.00 96 1012.5
20260506231018 74 192 3.0 4.0 0.00 0.00 0.00 96 1012.5
20260506230517 73 226 0.0 3.0 0.00 0.00 0.00 96 1012.5
20260506230017 73 270 1.0 3.0 0.00 0.00 0.00 96 1012.6
20260506225517 73 189 1.0 4.0 0.00 0.00 0.00 96 1012.5
20260506225017 73 217 2.0 5.0 0.00 0.00 0.00 96 1012.4
20260506224517 73 222 0.0 1.0 0.00 0.00 0.00 96 1012.4
20260506224017 73 257 0.0 3.0 0.00 0.00 0.00 96 1012.3